Regional Weather Roundup
Issued by NWS

Home | Current Version | Previous Version | Graphics & Text | Print | Product List | Glossary On
Versions: 1 2 3 4 5 6 7 8 9 10 11 12 13 14 15 16 17 18 19 20 21 22 23 24 25 26 27 28 29 30 31 32 33 34 35 36 37 38 39 40 41 42 43 44 45 46 47 48 49 50
000
ASUS45 KCYS 252110
RWRWY

WYOMING REGIONAL WEATHER ROUNDUP
NATIONAL WEATHER SERVICE CHEYENNE WY
300 PM MDT MON MAY 25 2015

NOTE:  "FAIR" INDICATES FEW OR NO CLOUDS BELOW 12,000 FEET
WITH NO SIGNIFICANT WEATHER AND/OR OBSTRUCTIONS TO VISIBILITY.

WYZ001-252200-
YELLOWSTONE NATIONAL PARK

CITY           SKY/WX    TMP DP  RH WIND       PRES   REMARKS
LK YELLOWSTONE   N/A     42  37  82 SW9       30.06R
W YELLOWSTONE  NOT AVBL

$$
WYZ002>013-054>058-071-098>099-252200-
NORTHERN WYOMING

CITY           SKY/WX    TMP DP  RH WIND       PRES   REMARKS
JACKSON        PTSUNNY   61  36  39 W12G18    29.97F
CODY           CLOUDY    57  39  51 N16G23    29.95R
GREYBULL       PTSUNNY   61  48  62 E16       29.91R
WORLAND        PTSUNNY   63  47  55 NW8       29.91S
SHERIDAN       CLOUDY    60  49  66 NW8       29.93S
BUFFALO        CLOUDY    57  47  69 NE7       29.95F
GILLETTE       CLOUDY    57  48  72 N10       29.92S
HULETT         LGT RAIN  54  52  94 NE7       29.92S
NEWCASTLE      MOCLDY    61  45  55 NW15G21   29.87S

$$
WYZ014>020-022>026-101>103-252200-
CENTRAL WYOMING

CITY           SKY/WX    TMP DP  RH WIND       PRES   REMARKS
BIG PINEY      FAIR      52  38  58 SW5       30.04R
PINEDALE       MOCLDY    50  37  62 SW7       30.04R
DUBOIS         CLOUDY    55  37  50 SE14G21   29.96S
LANDER         RAIN      53  44  71 W12       29.96R
RIVERTON       PTSUNNY   59  44  57 NW7       29.96F
CASPER         FAIR      59  43  55 VRB6      29.94F
DOUGLAS        CLOUDY    57  47  69 NW14      29.93S

$$
WYZ021-027>030-104>119-252200-
SOUTHERN WYOMING

CITY           SKY/WX    TMP DP  RH WIND       PRES   REMARKS
EVANSTON       PTSUNNY   53  39  59 VRB3      30.05F
KEMMERER       LGT RAIN  46  39  76 W10       30.08R
FORT BRIDGER   MOCLDY    57  43  58 SW10G21   30.06F
ROCK SPRINGS   CLOUDY    56  40  55 W9        30.00F
DIXON          FAIR      56  41  56 W6        30.04S
RAWLINS        LGT RAIN  54  42  64 NW10      29.99F
SARATOGA       MOCLDY    50  43  76 W9        30.01S
LARAMIE        FAIR      52  38  58 N21G31    29.98R
CHEYENNE       FAIR      54  41  61 N14G23    29.94S
TORRINGTON     FAIR      59  52  77 NW8       29.86F
PINE BLUFFS    MOCLDY    52  45  76 N14       29.94S

$$


USA.gov is the U.S. government's official web portal to all federal, state and local government web resources and services.